Location: North Bay Shore
(40.7362°N, 73.2626°W)
Time: 09:44:10
(UTC+00:00)

NOSS 3-3 (A) - Pass Details

Date: 29 October 2020
Orbit: 826 x 1387 km, 63.4° (Epoch: 22 November)

Event Time Altitude Azimuth Distance (km) Brightness Sun altitude
Rises 23:24:18 0° 221° (SW) 3,388 7.5 -17.9°
Reaches altitude 10° 23:26:40 10° 224° (SW) 2,491 6.8 -18.4°
Maximum altitude 23:32:23 69° 307° (NW) 985 4.1 -19.5°
Enters shadow 23:38:34 11° 30° (NNE) 2,701 6.0 -20.6°
